This is the latest recevied weather packets stored in our database for station/object WD9EKA. If no packets are shown the sender has not sent any weather packets the latest 10 day(s).
| Time | Temp. | Humidity | Pressure | Rain* | Wind** | Luminosity | Snow |
|---|---|---|---|---|---|---|---|
| 1787430812 | 27.22° C | 64% | 1010.1 hPa | 0 mm | - | - | - |
| 1787430453 | 27.22° C | 65% | 1010.2 hPa | 0 mm | - | - | - |
| 1787430093 | 27.22° C | 62% | 1010 hPa | 0 mm | - | - | - |
| 1787429732 | 27.22° C | 59% | 1009.9 hPa | 0 mm | - | - | - |
| 1787429373 | 26.67° C | 61% | 1010 hPa | 0 mm | - | - | - |
| 1787429013 | 27.22° C | 59% | 1010.2 hPa | 0 mm | - | - | - |
| 1787428653 | 27.22° C | 59% | 1010.1 hPa | 0 mm | - | - | - |
| 1787428293 | 26.67° C | 59% | 1010.1 hPa | 0 mm | - | - | - |
| 1787427932 | 26.67° C | 60% | 1010.2 hPa | 0 mm | - | - | - |
| 1787427572 | 26.67° C | 59% | 1010.4 hPa | 0 mm | - | - | - |
| 1787427212 | 26.11° C | 60% | 1010.3 hPa | 0 mm | - | - | - |
| 1787426853 | 26.67° C | 58% | 1010.3 hPa | 0 mm | - | - | - |
| 1787426493 | 26.67° C | 58% | 1010.2 hPa | 0 mm | - | - | - |
| 1787426132 | 26.67° C | 62% | 1010.3 hPa | 0 mm | - | - | - |
| 1787425772 | 26.67° C | 60% | 1010.2 hPa | 0 mm | - | - | - |
| 1787425412 | 26.67° C | 62% | 1010.4 hPa | 0 mm | - | - | - |
| 1787425052 | 26.67° C | 63% | 1010.1 hPa | 0 mm | - | - | - |
| 1787424693 | 26.67° C | 62% | 1010.4 hPa | 0 mm | - | - | - |
| 1787424333 | 26.11° C | 60% | 1010.1 hPa | 0 mm | - | - | - |
| 1787423973 | 26.67° C | 69% | 1010.2 hPa | 0 mm | - | - | - |
| 1787423612 | 26.67° C | 68% | 1010.1 hPa | 0 mm | - | - | - |
| 1787423253 | 26.11° C | 69% | 1010.4 hPa | 0 mm | - | - | - |
| 1787422892 | 26.11° C | 70% | 1010.5 hPa | 0 mm | - | - | - |
| 1787422532 | 26.67° C | 69% | 1010.5 hPa | 0 mm | - | - | - |
| 1787422173 | 26.11° C | 71% | 1010.4 hPa | 0 mm | - | - | - |
* Rain latest hour (hover to see other rain measurements)
** Current wind speed in m/s (hover to see current wind gust speed)